Location: Unspecified
(0.0000°N, 0.0000°E)
Time: 13:08:18
(UTC+00:00)

MERIDIAN 6 - Visible Passes

Search period start: 18 May 2026 00:00
Search period end: 28 May 2026 00:00
Orbit: 685 x 39663 km, 64.1° (Epoch: 15 May)

Date Brightness Start Highest point End Pass type
(mag) Time Alt. Az. Time Alt. Az. Time Alt. Az.
18 May ? 04:08:15 10° SE 08:06:55 45° NNE 14:14:17 10° N visible
19 May ? 04:03:37 10° SE 08:02:28 45° NNE 14:09:32 10° N visible
20 May ? 03:59:00 10° SE 07:58:01 45° NNE 14:04:47 10° N visible
21 May ? 03:54:22 10° SE 07:53:33 45° NNE 14:00:01 10° N visible
22 May ? 03:49:44 10° SE 07:49:06 45° NNE 13:55:16 10° N visible
23 May ? 03:45:07 10° SE 07:44:39 45° NNE 13:50:31 10° N visible
24 May ? 03:40:29 10° SE 07:40:12 45° NNE 13:45:46 10° N visible
25 May ? 03:35:52 10° SE 07:35:45 45° NNE 13:41:01 10° N visible
26 May ? 03:31:14 10° SE 07:31:18 45° NNE 13:36:16 10° N visible
27 May ? 03:26:36 10° SE 07:26:51 45° NNE 13:31:31 10° N visible
